Content
SEND FEEDBACK

Daily
Averages
Monthly
Summary
United States of America

WOODBURY, GEORGIA


Home > North America > United States > Georgia
Elevation: 80 feet     Latitude: 32 59N     Longitude: 084 35W

WEATHER
 
SELECT A DAY
Number of Records: 336,431;   Date Range: 10/4/00 - 8/30/14
 
SHARE

PRINT THIS DATA

[ ← Previous Day ]
WEATHER ALMANAC - FEBRUARY 13, 2013
[ Next Day → ]
[ °C ]   °F
Weather ElementAverageHighLow
Temperature48.9 °F55.4 °F (10:35 am)41 °F (11:35 pm)
Dewpoint46.4 °F53.6 °F (9:55 am)37.4 °F (9:35 pm)
Humidity91.4 %100 % (12:35 am)76 % (5:55 pm)
Barometer29.85 in29.98 in (11:55 pm)29.76 in (4:35 am)
Wind Speed8.5 mph19.6 mph (12:35 pm)
Wind Gust26.5 mph (10:55 am)
Weather ElementAverage
Visibility7.9 mi
Wind DirectionSW (221.8 °)

Weather ElementTotal
Precipitation---
Heating Degree Days16.8 (Base 65)
Averaged from 71 records on February 13, 2013
WEATHER CONDITIONS BREAKOUT
WIND DIRECTION BREAKOUT
WEATHER BY HOUR - FEBRUARY 13, 2013
[ °C ]   °F
Local TimeTemperatureDewpointHumidityBarometerVisibilityWind DirectionWind SpeedGust SpeedPrecipitationEventsConditions
12:35 AM48.2 °F48.2 °F100 %29.85 in10.0 miEast (90°)8.1 mphThunderstorm
12:55 AM48.2 °F48.2 °F100 %29.83 in10.0 miEast (100°)10.4 mphRain-ThunderstormRain
1:15 AM48.2 °F48.2 °F100 %29.83 in10.0 miEast (80°)9.2 mphOvercast
1:35 AM48.2 °F48.2 °F100 %29.82 in10.0 miEast (80°)8.1 mphOvercast
1:55 AM48.2 °F48.2 °F100 %29.83 in10.0 miEast (80°)6.9 mphOvercast
2:15 AM48.2 °F48.2 °F100 %29.80 in10.0 miEast (90°)9.2 mphOvercast
2:35 AM48.2 °F48.2 °F100 %29.81 in10.0 miENE (70°)4.6 mphOvercast
2:55 AM48.2 °F48.2 °F100 %29.80 in10.0 miEast (80°)5.8 mphOvercast
3:15 AM48.2 °F48.2 °F100 %29.79 in5.0 miEast (90°)4.6 mphOvercast
3:35 AM48.2 °F48.2 °F100 %29.79 in4.0 miEast (90°)5.8 mphOvercast
3:55 AM48.2 °F48.2 °F100 %29.78 in4.0 miESE (110°)6.9 mphOvercast
4:15 AM48.2 °F48.2 °F100 %29.78 in2.5 miCalmOvercast
4:35 AM48.2 °F48.2 °F100 %29.76 in2.5 miESE (110°)8.1 mphOvercast
4:55 AM48.2 °F48.2 °F100 %29.78 in3.0 miCalmOvercast
5:15 AM48.2 °F48.2 °F100 %29.76 in3.0 miEast (80°)5.8 mphOvercast
5:35 AM48.2 °F48.2 °F100 %29.78 in3.0 miCalmOvercast
5:55 AM48.2 °F48.2 °F100 %29.79 in2.5 miCalmOvercast
6:15 AM48.2 °F48.2 °F100 %29.79 in2.0 miSE (130°)3.5 mphOvercast
6:35 AM48.2 °F48.2 °F100 %29.79 in1.5 miSSE (160°)4.6 mphOvercast
6:55 AM48.2 °F48.2 °F100 %29.79 in1.8 miCalmOvercast
7:15 AM48.2 °F48.2 °F100 %29.79 in1.8 miSSE (150°)4.6 mphOvercast
7:35 AM48.2 °F48.2 °F100 %29.79 in1.8 miSouth (180°)3.5 mphOvercast
7:55 AM48.2 °F48.2 °F100 %29.81 in1.2 miWest (280°)3.5 mphOvercast
8:15 AM50.0 °F50.0 °F100 %29.80 in1.0 miCalmLight Drizzle
8:35 AM50.0 °F50.0 °F100 %29.79 in1.5 miSSW (200°)3.5 mphOvercast
8:55 AM50.0 °F50.0 °F100 %29.80 in1.0 miSW (230°)4.6 mphOvercast
9:15 AM51.8 °F51.8 °F100 %29.81 in1.2 miSW (230°)10.4 mphOvercast
9:35 AM51.8 °F51.8 °F100 %29.79 in10.0 miWSW (240°)10.4 mph16.1 mphOvercast
9:55 AM53.6 °F53.6 °F100 %29.81 in10.0 miWSW (250°)10.4 mphOvercast
10:15 AM53.6 °F53.6 °F100 %29.84 in10.0 miWest (270°)10.4 mphOvercast
10:35 AM55.4 °F51.8 °F88 %29.83 in10.0 miWest (280°)15.0 mph20.7 mphMostly Cloudy
10:55 AM53.6 °F50.0 °F88 %29.84 in10.0 miWest (280°)15.0 mph26.5 mphScattered Clouds
11:15 AM53.6 °F50.0 °F88 %29.83 in10.0 miWest (280°)16.1 mph26.5 mphMostly Cloudy
11:35 AM53.6 °F50.0 °F88 %29.81 in10.0 miWNW (290°)10.4 mphOvercast
11:55 AM53.6 °F50.0 °F88 %29.83 in10.0 miWest (260°)13.8 mph17.3 mphOvercast
12:15 PM53.6 °F50.0 °F88 %29.84 in10.0 miWest (280°)10.4 mph17.3 mphOvercast
12:35 PM53.6 °F48.2 °F82 %29.84 in10.0 miWest (280°)19.6 mph26.5 mphOvercast
12:55 PM51.8 °F48.2 °F88 %29.84 in10.0 miWest (280°)12.7 mph23.0 mphDrizzle
1:15 PM51.8 °F48.2 °F88 %29.86 in10.0 miWest (270°)17.3 mph21.9 mphRainLight Rain
1:35 PM51.8 °F50.0 °F94 %29.86 in10.0 miWest (280°)15.0 mph18.4 mphDrizzle
1:55 PM51.8 °F50.0 °F94 %29.81 in10.0 miWest (270°)9.2 mphRainLight Rain
2:15 PM50.0 °F50.0 °F100 %29.83 in10.0 miWest (270°)10.4 mphRainLight Rain
2:35 PM50.0 °F50.0 °F100 %29.81 in10.0 miWest (270°)9.2 mphOvercast
2:55 PM50.0 °F46.4 °F87 %29.82 in10.0 miWest (280°)12.7 mph16.1 mphOvercast
3:15 PM51.8 °F46.4 °F82 %29.82 in10.0 miWest (280°)13.8 mphMostly Cloudy
3:35 PM50.0 °F46.4 °F87 %29.82 in10.0 miWest (270°)13.8 mph17.3 mphMostly Cloudy
3:55 PM50.0 °F46.4 °F87 %29.84 in10.0 miWest (280°)11.5 mphOvercast
4:15 PM50.0 °F46.4 °F87 %29.84 in10.0 miWNW (290°)11.5 mphOvercast
4:35 PM50.0 °F44.6 °F82 %29.86 in10.0 miWest (280°)15.0 mphOvercast
4:55 PM50.0 °F44.6 °F82 %29.86 in10.0 miWNW (290°)11.5 mphOvercast
5:15 PM50.0 °F44.6 °F82 %29.87 in10.0 miWNW (300°)13.8 mph20.7 mphOvercast
5:35 PM50.0 °F44.6 °F82 %29.87 in10.0 miNW (310°)10.4 mphOvercast
5:55 PM50.0 °F42.8 °F76 %29.88 in10.0 miNW (310°)12.7 mphOvercast
6:15 PM50.0 °F42.8 °F76 %29.89 in10.0 miNW (310°)12.7 mphOvercast
6:35 PM48.2 °F42.8 °F82 %29.89 in10.0 miNW (310°)10.4 mphOvercast
6:55 PM48.2 °F42.8 °F82 %29.89 in10.0 miNW (320°)8.1 mph17.3 mphOvercast
7:15 PM48.2 °F42.8 °F82 %29.90 in10.0 miNW (320°)8.1 mphMostly Cloudy
7:35 PM46.4 °F42.8 °F87 %29.92 in10.0 miNW (310°)10.4 mphOvercast
7:55 PM46.4 °F42.8 °F87 %29.92 in10.0 miNW (310°)9.2 mphOvercast
8:15 PM46.4 °F42.8 °F87 %29.92 in10.0 miNW (310°)10.4 mphOvercast
8:35 PM46.4 °F42.8 °F87 %29.94 in10.0 miNW (320°)6.9 mphOvercast
8:55 PM46.4 °F42.8 °F87 %29.94 in10.0 miNNW (330°)8.1 mphOvercast
9:15 PM46.4 °F39.2 °F76 %29.95 in10.0 miNNW (340°)6.9 mphScattered Clouds
9:35 PM44.6 °F37.4 °F76 %29.95 in10.0 miNNW (330°)4.6 mphClear
9:55 PM44.6 °F37.4 °F76 %29.96 in10.0 miNNW (330°)9.2 mphClear
10:15 PM42.8 °F37.4 °F81 %29.96 in10.0 miNNW (330°)6.9 mphClear
10:35 PM42.8 °F37.4 °F81 %29.96 in10.0 miNNW (340°)6.9 mphClear
10:55 PM42.8 °F37.4 °F81 %29.97 in10.0 miNNW (330°)5.8 mphClear
11:15 PM42.8 °F37.4 °F81 %29.97 in10.0 miNW (320°)5.8 mphClear
11:35 PM41.0 °F37.4 °F87 %29.97 in10.0 miNW (320°)4.6 mphClear
11:55 PM41.0 °F37.4 °F87 %29.98 in10.0 miNW (320°)5.8 mphClear
Hourly data recorded from KOPN, located miles away from Woodbury, Georgia







STORIES FROM OUR PARTNERS